Weather History for Twin Falls, ID

Change the Weather History Date:

Wednesday, March 20, 2013

  Actual Average Record
Temperature  
Mean Temperature 49 °F -  
Max Temperature 61 °F 54 °F 71 °F (1988)
Min Temperature 36 °F 32 °F 21 °F (1983)
Degree Days  
Heating Degree Days 16 22  
Month to date heating degree days 410 492  
Since 1 July heating degree days 4702 5059  
Cooling Degree Days 0 0  
Month to date cooling degree days 0 0  
Year to date cooling degree days 0 0  
Moisture  
Dew Point 37 °F    
Average Humidity 54    
Maximum Humidity 85    
Minimum Humidity 22    
Precipitation  
Precipitation 0.48 in 0.04 in 0.48 in (2013)
Month to date precipitation 0.60 0.56  
Year to date precipitation 1.53 2.35  
Sea Level Pressure  
Sea Level Pressure 29.79 in    
Wind  
Wind Speed 12 mph (SSW)    
Max Wind Speed 36 mph    
Max Gust Speed 44 mph    
Visibility 9 miles    
Events Rain , Thunderstorm    
T = Trace of Precipitation, MM = Missing Value Source: NWS Daily Summary

Daily Weather History Graph

Daily Weather History Graph

Search for Another Location

Airport:

Trip Planner

Search our weather history database for the weather conditions in past years. The results will help you decide how hot, cold, wet, or windy it might be!

Date:

Astronomy

Mar. 20, 2013 Rise Set
Actual Time 7:40 AM MDT 7:50 PM MDT
Civil Twilight 7:12 AM MDT 8:18 PM MDT
Nautical Twilight 6:39 AM MDT 8:51 PM MDT
Astronomical Twilight 6:06 AM MDT 9:25 PM MDT
Moon 1:22 PM MDT (3/20) 3:30 AM MDT (3/20)
Length of Visible Light 13h 06m
Length of Day
12h 09m
First Quarter, 60% of the Moon is Illuminated
Mar 20
First Quarter
Mar 27
Full
Apr 2
Last Quarter
Apr 10
New
Apr 18
First Quarter

Hourly Weather History & Observations

Time (MDT) Temp. Windchill Dew Point Humidity Pressure Visibility Wind Dir Wind Speed Gust Speed Precip Events Conditions
12:53 AM 51.1 °F - 14.0 °F 23% 29.88 in 10.0 mi SSE 16.1 mph 24.2 mph N/A   Overcast
1:53 AM 52.0 °F - 15.1 °F 23% 29.86 in 10.0 mi SSE 12.7 mph 20.7 mph N/A   Overcast
2:53 AM 52.0 °F - 16.0 °F 24% 29.83 in 10.0 mi South 19.6 mph 28.8 mph N/A   Overcast
3:53 AM 50.0 °F - 23.0 °F 35% 29.86 in 10.0 mi SSW 8.1 mph - 0.00 in Rain Light Rain
4:53 AM 48.0 °F - 30.9 °F 52% 29.86 in 10.0 mi SSW 8.1 mph 23.0 mph 0.00 in Rain Light Rain
5:53 AM 42.1 °F 35.7 °F 35.1 °F 76% 29.87 in 10.0 mi SSE 11.5 mph - 0.02 in Rain Light Rain
6:53 AM 42.1 °F 36.1 °F 36.0 °F 79% 29.88 in 7.0 mi South 10.4 mph - 0.07 in Rain Light Rain
7:53 AM 42.1 °F 36.1 °F 37.0 °F 82% 29.88 in 6.0 mi South 10.4 mph - 0.09 in Rain Light Rain
8:53 AM 44.1 °F 40.8 °F 39.0 °F 82% 29.88 in 10.0 mi SSE 5.8 mph - 0.04 in Rain Light Rain
9:53 AM 44.1 °F 39.0 °F 39.9 °F 85% 29.86 in 10.0 mi NNE 9.2 mph - 0.00 in   Overcast
10:53 AM 46.9 °F - 41.0 °F 80% 29.84 in 10.0 mi Calm Calm - 0.01 in   Overcast
11:53 AM 51.1 °F - 41.0 °F 68% 29.83 in 10.0 mi SSW 10.4 mph - 0.00 in Rain Light Rain
12:53 PM 52.0 °F - 44.1 °F 74% 29.82 in 10.0 mi SSW 6.9 mph - 0.01 in Rain Light Rain
1:53 PM 52.0 °F - 43.0 °F 71% 29.81 in 10.0 mi SSW 6.9 mph - 0.01 in Rain Light Rain
2:53 PM 55.0 °F - 42.1 °F 62% 29.75 in 10.0 mi South 8.1 mph - 0.01 in   Overcast
3:53 PM 57.0 °F - 42.1 °F 57% 29.69 in 10.0 mi SSE 10.4 mph - 0.00 in   Mostly Cloudy
4:14 PM 57.2 °F - 44.6 °F 63% 29.79 in 10.0 mi West 16.1 mph 24.2 mph N/A   Mostly Cloudy
4:28 PM 55.4 °F - 44.6 °F 67% 29.78 in 10.0 mi WNW 12.7 mph - N/A   Mostly Cloudy
4:49 PM 53.6 °F - 42.8 °F 67% 29.79 in 9.0 mi NW 11.5 mph 21.9 mph 0.00 in Rain , Thunderstorm Light Rain
4:53 PM 51.1 °F - 43.0 °F 74% 29.71 in 10.0 mi NW 16.1 mph 25.3 mph 0.00 in Rain , Thunderstorm Light Thunderstorms and Rain
5:22 PM 48.2 °F - 42.8 °F 82% 29.79 in 4.0 mi WNW 9.2 mph 18.4 mph 0.04 in Rain Rain
5:53 PM 53.1 °F - 44.1 °F 71% 29.69 in 10.0 mi South 5.8 mph - 0.04 in   Mostly Cloudy
6:41 PM 57.2 °F - 39.2 °F 51% 29.73 in 10.0 mi SSW 12.7 mph - N/A   Scattered Clouds
6:53 PM 55.9 °F - 37.9 °F 51% 29.65 in 10.0 mi SSW 13.8 mph - N/A   Partly Cloudy
7:53 PM 54.0 °F - 36.0 °F 51% 29.63 in 10.0 mi SSW 17.3 mph - N/A   Mostly Cloudy
8:53 PM 50.0 °F - 39.9 °F 68% 29.66 in 10.0 mi WSW 6.9 mph 27.6 mph 0.00 in Rain Light Rain
9:53 PM 46.9 °F - 39.9 °F 77% 29.71 in 6.0 mi West 25.3 mph 36.8 mph 0.01 in Rain Light Rain
10:04 PM 44.6 °F 37.2 °F 39.2 °F 81% 29.78 in 10.0 mi West 17.3 mph - 0.00 in Rain Light Rain
10:53 PM 44.1 °F 35.9 °F 37.0 °F 76% 29.75 in 9.0 mi West 19.6 mph 26.5 mph 0.02 in Rain Light Rain